User: anonymous   Login
Location: Unspecified
(0.0000°N, 0.0000°E)
Time: 12:42:28
(UTC+00:00)
Language:

NOAA 8 - Orbit

View from above orbital plane
View from above orbital plane
View from above satellite
View from above satellite

Ground track
Ground track

The orbit data is extracted from the following two-line orbital elements,

1 13923U 83022A   18020.96646986 +.00000014 +00000-0 +22799-4 0  9996
2 13923 098.5325 011.0554 0014273 241.7238 118.2504 14.28623037812730
Epoch (UTC): 20 January 2018 23:11:42
Eccentricity: 0.0014273
inclination: 98.5325°
perigee height: 786 km
apogee height: 806 km
right ascension of ascending node: 11.0554°
argument of perigee: 241.7238°
revolutions per day: 14.28623037
mean anomaly at epoch: 118.2504°
orbit number at epoch: 81273

The dashed part of the orbit path shows where the satellite is in the earth's shadow,  

DLR